• In Hungary
  • List of Countries
  • For 7 days
  • Water Temperature
  • Satellite Maps
  • Weather Map
  • News
  • Weather Widgets
  • user-avatar
    Login

    Hourly Weather Gusyatin

    Today, 21 September, Friday

    Time Temperature Precipitation Wind Pressure Humidity
    00:00 +19°C° 0 mm 1 mps 743 mmHg 62%
    01:00 +18°C° 0 mm 1 mps 743 mmHg 62%
    02:00 +18°C° 0 mm 1 mps 743 mmHg 63%
    03:00 +18°C° 0 mm 1 mps 743 mmHg 63%
    04:00 +16°C° 0 mm 1 mps 743 mmHg 63%
    05:00 +16°C° 0 mm 1 mps 742 mmHg 63%
    06:00 +17°C° 0 mm 2 mps 743 mmHg 61%
    07:00 +17°C° 0 mm 2 mps 743 mmHg 59%
    08:00 +18°C° 0 mm 2 mps 743 mmHg 58%
    09:00 +20°C° 0 mm 3 mps 743 mmHg 53%
    10:00 +22°C° 0 mm 3 mps 743 mmHg 48%
    11:00 +25°C° 0 mm 4 mps 743 mmHg 43%
    12:00 +26°C° 0 mm 4 mps 742 mmHg 41%
    13:00 +26°C° 0 mm 4 mps 742 mmHg 39%
    14:00 +27°C° 0 mm 5 mps 742 mmHg 37%
    15:00 +27°C° 0 mm 4 mps 741 mmHg 40%
    16:00 +26°C° 0 mm 4 mps 741 mmHg 42%
    17:00 +25°C° 0 mm 3 mps 741 mmHg 45%
    18:00 +24°C° 0 mm 3 mps 740 mmHg 46%
    19:00 +21°C° 0 mm 3 mps 740 mmHg 47%
    20:00 +20°C° 0 mm 3 mps 740 mmHg 48%
    21:00 +19°C° 0 mm 3 mps 740 mmHg 48%
    22:00 +19°C° 0 mm 3 mps 740 mmHg 48%
    23:00 +18°C° 0 mm 3 mps 740 mmHg 49%

    Tomorrow, 22 September, Saturday

    Time Temperature Precipitation Wind Pressure Humidity
    00:00 +18°C° 0 mm 3 mps 740 mmHg 51%
    01:00 +17°C° 0 mm 3 mps 740 mmHg 54%
    02:00 +17°C° 0 mm 2 mps 740 mmHg 56%
    03:00 +16°C° 0 mm 2 mps 740 mmHg 58%
    04:00 +16°C° 0 mm 2 mps 739 mmHg 59%
    05:00 +16°C° 0 mm 2 mps 739 mmHg 61%
    06:00 +17°C° 0 mm 2 mps 739 mmHg 59%
    07:00 +18°C° 0 mm 2 mps 740 mmHg 58%
    08:00 +19°C° 0 mm 2 mps 740 mmHg 56%
    09:00 +21°C° 0 mm 3 mps 740 mmHg 52%
    10:00 +22°C° 0 mm 4 mps 740 mmHg 49%
    11:00 +25°C° 0 mm 5 mps 741 mmHg 45%
    12:00 +23°C° 0 mm 5 mps 741 mmHg 50%
    13:00 +22°C° 0 mm 6 mps 741 mmHg 55%
    14:00 +20°C° 0 mm 6 mps 741 mmHg 61%
    15:00 +19°C° 0 mm 6 mps 741 mmHg 62%
    16:00 +17°C° 0 mm 6 mps 741 mmHg 64%
    17:00 +16°C° 0 mm 6 mps 741 mmHg 66%
    18:00 +14°C° 1 mm 5 mps 741 mmHg 72%
    19:00 +13°C° 1 mm 5 mps 741 mmHg 79%
    20:00 +11°C° 1 mm 4 mps 742 mmHg 85%
    21:00 +11°C° 0.7 mm 4 mps 742 mmHg 86%
    22:00 +11°C° 0.7 mm 3 mps 742 mmHg 86%
    23:00 +10°C° 0.7 mm 3 mps 742 mmHg 87%

    Day after tomorrow, 23 September, Sunday

    Time Temperature Precipitation Wind Pressure Humidity
    00:00 +10°C° 0 mm 3 mps 743 mmHg 87%
    01:00 +10°C° 0 mm 2 mps 743 mmHg 87%
    02:00 +9°C° 0 mm 2 mps 743 mmHg 88%
    03:00 +9°C° 0 mm 2 mps 743 mmHg 87%
    04:00 +9°C° 0 mm 2 mps 743 mmHg 86%
    05:00 +9°C° 0 mm 2 mps 743 mmHg 85%
    06:00 +10°C° 0 mm 2 mps 743 mmHg 82%
    07:00 +11°C° 0 mm 3 mps 743 mmHg 79%
    08:00 +11°C° 0 mm 3 mps 743 mmHg 76%
    09:00 +13°C° 0 mm 4 mps 743 mmHg 69%
    10:00 +14°C° 0 mm 5 mps 743 mmHg 61%
    11:00 +16°C° 0 mm 5 mps 743 mmHg 54%
    12:00 +17°C° 0 mm 5 mps 743 mmHg 51%
    13:00 +17°C° 0 mm 5 mps 743 mmHg 48%
    14:00 +19°C° 0 mm 5 mps 742 mmHg 45%
    15:00 +18°C° 0 mm 4 mps 742 mmHg 48%
    16:00 +18°C° 0 mm 3 mps 742 mmHg 51%
    17:00 +17°C° 0 mm 2 mps 742 mmHg 55%
    18:00 +16°C° 0 mm 2 mps 742 mmHg 58%
    19:00 +15°C° 0 mm 2 mps 742 mmHg 61%
    20:00 +14°C° 0 mm 1 mps 742 mmHg 64%
    21:00 +13°C° 0 mm 2 mps 742 mmHg 66%
    22:00 +13°C° 0 mm 2 mps 741 mmHg 67%
    23:00 +13°C° 0 mm 2 mps 741 mmHg 69%

    24 September, Monday

    Time Temperature Precipitation Wind Pressure Humidity
    00:00 +12°C° 0 mm 3 mps 740 mmHg 67%
    01:00 +12°C° 0 mm 3 mps 739 mmHg 65%
    02:00 +12°C° 0 mm 4 mps 738 mmHg 63%
    03:00 +12°C° 0 mm 5 mps 737 mmHg 61%
    04:00 +13°C° 0 mm 6 mps 735 mmHg 59%
    05:00 +13°C° 0 mm 6 mps 734 mmHg 57%
    06:00 +12°C° 0.1 mm 7 mps 733 mmHg 59%
    07:00 +14°C° 0.1 mm 7 mps 732 mmHg 61%
    08:00 +14°C° 0.1 mm 7 mps 731 mmHg 63%
    09:00 +15°C° 0.5 mm 7 mps 730 mmHg 67%
    10:00 +15°C° 0.5 mm 6 mps 730 mmHg 71%
    11:00 +16°C° 0.5 mm 6 mps 730 mmHg 76%
    12:00 +15°C° 0.1 mm 9 mps 731 mmHg 72%
    13:00 +12°C° 0.1 mm 11 mps 732 mmHg 68%
    14:00 +10°C° 0.1 mm 14 mps 733 mmHg 64%
    15:00 +10°C° 0 mm 13 mps 734 mmHg 63%
    16:00 +10°C° 0 mm 12 mps 736 mmHg 63%
    17:00 +11°C° 0 mm 11 mps 737 mmHg 62%
    18:00 +9°C° 0 mm 10 mps 737 mmHg 62%
    19:00 +10°C° 0 mm 9 mps 738 mmHg 62%
    20:00 +9°C° 0 mm 8 mps 739 mmHg 62%
    21:00 +9°C° 0 mm 8 mps 739 mmHg 64%
    22:00 +8°C° 0 mm 7 mps 740 mmHg 65%
    23:00 +8°C° 0 mm 7 mps 740 mmHg 67%

    25 September, Tuesday

    Time Temperature Precipitation Wind Pressure Humidity
    00:00 +7°C° 0 mm 8 mps 740 mmHg 68%
    01:00 +6°C° 0 mm 8 mps 741 mmHg 68%
    02:00 +6°C° 0 mm 8 mps 741 mmHg 69%
    03:00 +6°C° 0 mm 8 mps 741 mmHg 69%
    04:00 +6°C° 0 mm 9 mps 742 mmHg 68%
    05:00 +6°C° 0 mm 9 mps 742 mmHg 68%
    06:00 +6°C° 0.1 mm 9 mps 743 mmHg 68%
    07:00 +5°C° 0.1 mm 9 mps 743 mmHg 69%
    08:00 +5°C° 0.1 mm 10 mps 744 mmHg 69%
    09:00 +6°C° 0 mm 10 mps 745 mmHg 67%
    10:00 +6°C° 0 mm 9 mps 745 mmHg 65%
    11:00 +7°C° 0 mm 9 mps 746 mmHg 63%
    12:00 +8°C° 0.1 mm 9 mps 746 mmHg 59%
    13:00 +8°C° 0.1 mm 9 mps 746 mmHg 55%
    14:00 +10°C° 0.1 mm 9 mps 746 mmHg 52%
    15:00 +10°C° 0.1 mm 8 mps 746 mmHg 54%
    16:00 +9°C° 0.1 mm 8 mps 747 mmHg 56%
    17:00 +9°C° 0.1 mm 7 mps 747 mmHg 58%
    18:00 +8°C° 0 mm 7 mps 748 mmHg 61%
    19:00 +7°C° 0 mm 6 mps 748 mmHg 65%
    20:00 +6°C° 0 mm 5 mps 749 mmHg 68%
    21:00 +6°C° 0 mm 5 mps 749 mmHg 69%
    22:00 +5°C° 0 mm 5 mps 750 mmHg 70%
    23:00 +5°C° 0 mm 5 mps 750 mmHg 71%

    26 September, Wednesday

    Time Temperature Precipitation Wind Pressure Humidity
    00:00 +5°C° 0 mm 5 mps 750 mmHg 72%
    01:00 +3°C° 0 mm 5 mps 750 mmHg 73%
    02:00 +3°C° 0 mm 5 mps 750 mmHg 74%
    03:00 +3°C° 0 mm 5 mps 750 mmHg 74%
    04:00 +3°C° 0 mm 5 mps 750 mmHg 75%
    05:00 +3°C° 0 mm 5 mps 750 mmHg 76%
    06:00 +4°C° 0 mm 6 mps 750 mmHg 73%
    07:00 +4°C° 0 mm 6 mps 750 mmHg 71%
    08:00 +5°C° 0 mm 7 mps 750 mmHg 69%
    09:00 +7°C° 0 mm 8 mps 749 mmHg 65%
    10:00 +10°C° 0 mm 8 mps 749 mmHg 61%
    11:00 +11°C° 0 mm 9 mps 749 mmHg 57%
    12:00 +11°C° 0 mm 9 mps 749 mmHg 56%
    13:00 +12°C° 0 mm 9 mps 748 mmHg 56%
    14:00 +12°C° 0 mm 9 mps 748 mmHg 56%
    15:00 +11°C° 0 mm 9 mps 748 mmHg 57%
    16:00 +11°C° 0 mm 8 mps 748 mmHg 58%
    17:00 +10°C° 0 mm 7 mps 748 mmHg 58%
    18:00 +10°C° 0 mm 7 mps 748 mmHg 59%
    19:00 +10°C° 0 mm 6 mps 748 mmHg 59%
    20:00 +9°C° 0 mm 5 mps 748 mmHg 59%
    21:00 +8°C° 0 mm 5 mps 748 mmHg 60%
    22:00 +8°C° 0 mm 4 mps 748 mmHg 62%
    23:00 +7°C° 0 mm 4 mps 748 mmHg 63%
    Show more